,

(GMT )
Banff

Weather History for CWZG - November, 2012

Change the Weather History Date:

Tuesday, November 6, 2012

  Actual Average Record
Temperature  
Mean Temperature 32 °F -  
Max Temperature 37 °F - - ()
Min Temperature 28 °F - - ()
Degree Days  
Heating Degree Days 32    
Moisture  
Dew Point 26 °F    
Average Humidity 79    
Maximum Humidity 96    
Minimum Humidity 52    
Precipitation  
Precipitation 0.58 in - - ()
Sea Level Pressure  
Sea Level Pressure 30.08 in    
Wind  
Wind Speed 5 mph ()    
Max Wind Speed 12 mph    
Max Gust Speed -    
T = Trace of Precipitation, MM = Missing Value Source: Averaged Metar Reports

Daily Weather History Graph

Daily Weather History Graph

Search for Another Location

Airport or City:

Trip Planner

Search our weather history database for the weather conditions in past years. The results will help you decide how hot, cold, wet, or windy it might be!

Date:

Astronomy

Nov. 06, 2012 Rise Set
Actual Time 7:44 AM MST 5:06 PM MST
Civil Twilight 7:09 AM MST 5:41 PM MST
Nautical Twilight 6:29 AM MST 6:21 PM MST
Astronomical Twilight 5:50 AM MST 7:00 PM MST
Moon 11:59 PM MST (11/6) 1:32 PM MST (11/6)
Length of Visible Light 10h 32m
Length of Day
9h 21m
Waning Gibbous, 52% of the Moon is Illuminated
Nov 6
Waning Gibbous
Nov 6
Last Quarter
Nov 13
New
Nov 20
First Quarter
Nov 28
Full

Hourly Weather History & Observations

Time (MST) Temp. Windchill Dew Point Humidity Pressure Visibility Wind Dir Wind Speed Gust Speed Precip Events Conditions
12:00 AM 33.8 °F 27.7 °F 17.6 °F 52% 30.25 in - WSW 6.9 mph - N/A   Unknown
2:00 AM 30.7 °F 24.1 °F 19.2 °F 62% 30.23 in - SW 6.9 mph - N/A   Unknown
3:00 AM 28.8 °F 25.0 °F 20.5 °F 71% 30.24 in - West 3.5 mph - N/A   Unknown
4:00 AM 29.5 °F 24.5 °F 21.2 °F 71% 30.23 in - SW 4.6 mph - N/A   Unknown
5:00 AM 30.2 °F 26.7 °F 21.2 °F 69% 30.22 in - WSW 3.5 mph - N/A   Unknown
6:00 AM 29.7 °F - 21.4 °F 71% 30.20 in - SW 2.3 mph - N/A   Unknown
7:00 AM 30.7 °F 27.3 °F 21.6 °F 69% 30.18 in - South 3.5 mph - N/A   Unknown
8:00 AM 29.8 °F - 21.2 °F 70% 30.17 in - ENE 1.2 mph - N/A   Unknown
9:00 AM 33.3 °F 27.1 °F 21.2 °F 61% 30.15 in - WSW 6.9 mph - N/A   Unknown
10:00 AM 34.5 °F 27.9 °F 24.4 °F 67% 30.13 in - SW 8.1 mph - N/A   Unknown
11:00 AM 37.8 °F 31.8 °F 25.7 °F 62% 30.12 in - SW 8.1 mph - N/A   Unknown
12:00 PM 36.5 °F 28.7 °F 26.2 °F 66% 30.10 in - WSW 11.5 mph - N/A   Unknown
1:00 PM 36.0 °F 30.3 °F 30.7 °F 81% 30.08 in - SW 6.9 mph - N/A   Unknown
2:00 PM 35.6 °F 30.7 °F 31.6 °F 85% 30.06 in - West 5.8 mph - N/A   Unknown
3:00 PM 34.3 °F 30.2 °F 31.6 °F 90% 30.04 in - WSW 4.6 mph - 0.03 in   Unknown
4:00 PM 33.1 °F 26.9 °F 31.6 °F 94% 30.03 in - SW 6.9 mph - 0.09 in   Unknown
5:00 PM 32.9 °F 27.5 °F 31.8 °F 96% 30.00 in - WSW 5.8 mph - 0.08 in   Unknown
6:00 PM 32.9 °F 29.8 °F 31.8 °F 96% 29.97 in - SW 3.5 mph - 0.12 in   Unknown
7:00 PM 33.1 °F 30.0 °F 32.0 °F 96% 29.94 in - WSW 3.5 mph - 0.07 in   Unknown
8:00 PM 33.3 °F 30.2 °F 31.8 °F 94% 29.90 in - SW 3.5 mph - 0.06 in   Unknown
9:00 PM 33.4 °F 29.1 °F 31.6 °F 93% 29.88 in - SSW 4.6 mph - 0.05 in   Unknown
10:00 PM 32.9 °F 27.5 °F 31.8 °F 96% 29.85 in - SW 5.8 mph - 0.07 in   Unknown
11:00 PM 33.3 °F 27.9 °F 31.8 °F 94% 29.81 in - SSW 5.8 mph - 0.01 in   Unknown